South Haven, MI

3:41 PM EDT on September 25, 2017 (GMT -0400)
South Haven

Weather History for KLWA - April, 2013

Change the Weather History Date:

Saturday, April 6, 2013

  Actual Average (KBEH) Record (KBEH)
Temperature  
Mean Temperature 48 °F -  
Max Temperature 63 °F 52 °F 82 °F (1988)
Min Temperature 32 °F 33 °F 14 °F (1982)
Degree Days  
Heating Degree Days 18    
Moisture  
Dew Point 27 °F    
Average Humidity 46    
Maximum Humidity 82    
Minimum Humidity 28    
Precipitation  
Precipitation 0.00 in - - ()
Sea Level Pressure  
Sea Level Pressure 29.95 in    
Wind  
Wind Speed 8 mph (SE)    
Max Wind Speed 25 mph    
Max Gust Speed 38 mph    
Visibility 10 miles    
Events Rain    
Averages and records for this station are not official NWS values.
T = Trace of Precipitation, MM = Missing Value Source: NWS Daily Summary

Daily Weather History Graph

Daily Weather History Graph

Search for Another Location

Airport or City:

Trip Planner

Search our weather history database for the weather conditions in past years. The results will help you decide how hot, cold, wet, or windy it might be!

Date:

Astronomy

Apr. 06, 2013 Rise Set
Actual Time 7:18 AM EDT 8:16 PM EDT
Civil Twilight 6:49 AM EDT 8:45 PM EDT
Nautical Twilight 6:15 AM EDT 9:19 PM EDT
Astronomical Twilight 5:40 AM EDT 9:55 PM EDT
Moon 5:06 AM EDT (4/6) 4:41 PM EDT (4/6)
Length of Visible Light 13h 55m
Length of Day
12h 58m
Waning Crescent, 15% of the Moon is Illuminated
Apr 6
Waning Crescent
Apr 10
New
Apr 18
First Quarter
Apr 25
Full
May 2
Last Quarter

Hourly Weather History & Observations

Time (EDT) Temp. Windchill Dew Point Humidity Pressure Visibility Wind Dir Wind Speed Gust Speed Precip Events Conditions
12:15 AM 33.1 °F - 27.7 °F 81% 30.17 in 10.0 mi Calm Calm - N/A   Overcast
12:34 AM 32.9 °F - 28.0 °F 82% 30.16 in 10.0 mi Calm Calm - N/A   Overcast
12:55 AM 33.3 °F - 28.0 °F 81% 30.16 in 10.0 mi Calm Calm - N/A   Overcast
1:15 AM 33.4 °F 29.1 °F 27.9 °F 80% 30.16 in 10.0 mi East 4.6 mph - N/A   Overcast
1:34 AM 33.8 °F 30.8 °F 27.9 °F 79% 30.16 in 10.0 mi East 3.5 mph - N/A   Overcast
1:55 AM 34.0 °F - 27.7 °F 78% 30.17 in 10.0 mi Calm Calm - N/A   Overcast
2:15 AM 34.2 °F 31.2 °F 27.5 °F 77% 30.17 in 10.0 mi East 3.5 mph - N/A   Overcast
2:35 AM 34.2 °F 31.2 °F 27.3 °F 76% 30.16 in 10.0 mi East 3.5 mph - N/A   Overcast
2:55 AM 34.5 °F 30.4 °F 27.3 °F 75% 30.16 in 10.0 mi East 4.6 mph - N/A   Overcast
3:15 AM 34.7 °F 31.8 °F 26.8 °F 73% 30.16 in 10.0 mi East 3.5 mph - N/A   Overcast
3:35 AM 35.1 °F 31.0 °F 26.4 °F 71% 30.16 in 10.0 mi East 4.6 mph - N/A   Overcast
3:54 AM 35.6 °F 30.7 °F 25.7 °F 67% 30.16 in 10.0 mi East 5.8 mph - N/A   Overcast
4:15 AM 35.8 °F 30.1 °F 25.2 °F 65% 30.14 in 10.0 mi East 6.9 mph - N/A   Overcast
4:35 AM 36.1 °F 30.6 °F 24.4 °F 63% 30.14 in 10.0 mi ESE 6.9 mph - N/A   Mostly Cloudy
4:54 AM 36.5 °F 31.8 °F 24.6 °F 62% 30.14 in 10.0 mi ESE 5.8 mph - N/A   Overcast
5:15 AM 36.9 °F 30.7 °F 24.3 °F 60% 30.12 in 10.0 mi SE 8.1 mph - N/A   Overcast
5:34 AM 37.4 °F 30.8 °F 23.9 °F 58% 30.12 in 10.0 mi SE 9.2 mph - N/A   Overcast
5:55 AM 37.4 °F 32.1 °F 23.9 °F 58% 30.12 in 10.0 mi ESE 6.9 mph - N/A   Mostly Cloudy
6:15 AM 37.6 °F 30.5 °F 23.5 °F 57% 30.12 in 10.0 mi ESE 10.4 mph - N/A   Mostly Cloudy
6:34 AM 37.8 °F 31.3 °F 23.4 °F 56% 30.11 in 10.0 mi SE 9.2 mph 16.1 mph N/A   Mostly Cloudy
6:55 AM 37.8 °F 30.7 °F 23.2 °F 56% 30.11 in 10.0 mi ESE 10.4 mph 16.1 mph N/A   Overcast
7:15 AM 37.9 °F 30.5 °F 23.0 °F 55% 30.10 in 10.0 mi SE 11.5 mph 16.1 mph N/A   Overcast
7:35 AM 37.9 °F 31.5 °F 23.0 °F 55% 30.10 in 10.0 mi SE 9.2 mph - N/A   Overcast
8:15 AM 38.5 °F 32.1 °F 22.8 °F 53% 30.11 in 10.0 mi SE 9.2 mph 17.3 mph N/A   Overcast
8:35 AM 38.8 °F 32.1 °F 22.8 °F 53% 30.11 in 10.0 mi SE 10.4 mph 16.1 mph N/A   Overcast
8:55 AM 39.4 °F 32.3 °F 22.6 °F 51% 30.10 in 10.0 mi SE 11.5 mph 18.4 mph N/A   Overcast
9:15 AM 40.1 °F 33.2 °F 22.6 °F 50% 30.09 in 10.0 mi SE 11.5 mph 20.7 mph N/A   Overcast
9:34 AM 41.2 °F 33.0 °F 22.1 °F 47% 30.09 in 10.0 mi SSE 16.1 mph 23.0 mph N/A   Overcast
9:55 AM 42.1 °F 34.5 °F 22.1 °F 45% 30.07 in 10.0 mi SE 15.0 mph 23.0 mph N/A   Overcast
10:14 AM 42.8 °F 35.4 °F 22.1 °F 44% 30.06 in 10.0 mi SSE 15.0 mph 24.2 mph N/A   Overcast
10:34 AM 43.7 °F 36.9 °F 22.1 °F 42% 30.05 in 10.0 mi SSE 13.8 mph 23.0 mph N/A   Mostly Cloudy
10:55 AM 44.6 °F 37.8 °F 21.7 °F 40% 30.05 in 10.0 mi SSE 15.0 mph 24.2 mph N/A   Scattered Clouds
11:15 AM 45.5 °F 39.9 °F 22.1 °F 40% 30.03 in 10.0 mi SE 11.5 mph 24.2 mph N/A   Clear
11:35 AM 46.9 °F - 22.3 °F 38% 30.02 in 10.0 mi SSE 13.8 mph 25.3 mph N/A   Scattered Clouds
11:55 AM 48.2 °F - 22.6 °F 37% 30.01 in 10.0 mi SE 16.1 mph 27.6 mph N/A   Scattered Clouds
12:15 PM 50.0 °F - 23.2 °F 35% 30.00 in 10.0 mi SSE 16.1 mph 28.8 mph N/A   Clear
12:35 PM 51.6 °F - 23.5 °F 33% 29.99 in 10.0 mi SSE 17.3 mph 26.5 mph N/A   Scattered Clouds
12:55 PM 53.1 °F - 24.3 °F 33% 29.98 in 10.0 mi SSE 16.1 mph 25.3 mph N/A   Scattered Clouds
1:15 PM 53.6 °F - 24.8 °F 33% 29.96 in 10.0 mi SE 16.1 mph 31.1 mph N/A   Clear
1:35 PM 53.8 °F - 24.8 °F 33% 29.95 in 10.0 mi SSE 19.6 mph 28.8 mph N/A   Scattered Clouds
1:54 PM 55.6 °F - 25.2 °F 31% 29.93 in 10.0 mi SSE 18.4 mph 27.6 mph N/A   Mostly Cloudy
2:15 PM 55.4 °F - 24.8 °F 31% 29.92 in 10.0 mi SSE 16.1 mph 24.2 mph N/A   Mostly Cloudy
2:34 PM 55.4 °F - 25.3 °F 31% 29.89 in 10.0 mi SSE 16.1 mph 29.9 mph N/A   Mostly Cloudy
2:53 PM 55.9 °F - 25.2 °F 31% 29.88 in 10.0 mi SSE 9.2 mph 21.9 mph N/A   Overcast
3:15 PM 56.1 °F - 25.0 °F 30% 29.87 in 10.0 mi SE 18.4 mph 24.2 mph N/A   Overcast
3:35 PM 56.8 °F - 25.5 °F 30% 29.84 in 10.0 mi SSE 11.5 mph 24.2 mph N/A   Scattered Clouds
3:55 PM 59.0 °F - 26.2 °F 29% 29.83 in 10.0 mi SSE 17.3 mph 27.6 mph N/A   Clear
4:15 PM 58.5 °F - 25.9 °F 29% 29.81 in 10.0 mi SSE 16.1 mph 27.6 mph N/A   Clear
4:35 PM 59.2 °F - 26.1 °F 28% 29.79 in 10.0 mi SSE 18.4 mph 28.8 mph N/A   Clear
4:55 PM 61.2 °F - 27.3 °F 28% 29.78 in 10.0 mi South 25.3 mph 38.0 mph N/A   Clear
5:15 PM 61.2 °F - 27.5 °F 28% 29.77 in 10.0 mi SSE 9.2 mph 26.5 mph N/A   Clear
5:35 PM 61.2 °F - 28.0 °F 28% 29.77 in 10.0 mi SSE 15.0 mph 25.3 mph N/A   Clear
5:55 PM 62.1 °F - 28.2 °F 28% 29.76 in 10.0 mi South 18.4 mph 24.2 mph N/A   Scattered Clouds
6:15 PM 61.3 °F - 28.9 °F 29% 29.75 in 10.0 mi SSE 15.0 mph 24.2 mph N/A   Scattered Clouds
6:35 PM 61.7 °F - 29.5 °F 30% 29.75 in 10.0 mi SSE 10.4 mph 17.3 mph N/A   Scattered Clouds
6:55 PM 62.1 °F - 29.8 °F 30% 29.75 in 10.0 mi SSE 10.4 mph 16.1 mph N/A   Clear
7:15 PM 62.6 °F - 30.6 °F 30% 29.74 in 10.0 mi SSE 10.4 mph - N/A   Mostly Cloudy
7:35 PM 62.6 °F - 31.6 °F 31% 29.74 in 10.0 mi SSE 10.4 mph 16.1 mph N/A Rain Light Rain
7:55 PM 62.6 °F - 31.6 °F 31% 29.71 in 10.0 mi SE 8.1 mph - N/A   Overcast
8:15 PM 62.6 °F - 32.2 °F 32% 29.71 in 10.0 mi South 10.4 mph 16.1 mph N/A   Overcast
8:35 PM 63.1 °F - 32.2 °F 31% 29.70 in 10.0 mi South 21.9 mph 31.1 mph N/A   Overcast
8:55 PM 63.1 °F - 32.0 °F 31% 29.67 in 10.0 mi South 18.4 mph 27.6 mph N/A   Overcast
9:15 PM 62.4 °F - 32.0 °F 32% 29.67 in 10.0 mi South 20.7 mph 28.8 mph N/A   Mostly Cloudy
9:35 PM 62.2 °F - 32.0 °F 32% 29.69 in 10.0 mi South 18.4 mph 32.2 mph N/A   Overcast
9:55 PM 62.1 °F - 32.4 °F 33% 29.68 in 10.0 mi South 13.8 mph 21.9 mph N/A   Overcast
10:13 PM 61.0 °F - 36.5 °F 40% 29.70 in 10.0 mi SSW 19.6 mph 24.2 mph N/A Rain Light Rain
10:35 PM 59.4 °F - 39.4 °F 48% 29.69 in 10.0 mi South 9.2 mph 17.3 mph N/A Rain Light Rain
10:54 PM 59.7 °F - 38.5 °F 45% 29.68 in 10.0 mi South 12.7 mph 17.3 mph N/A   Overcast
11:15 PM 60.8 °F - 37.8 °F 42% 29.67 in 10.0 mi South 11.5 mph 24.2 mph N/A Rain Light Rain
11:35 PM 61.5 °F - 37.2 °F 41% 29.66 in 10.0 mi South 15.0 mph 21.9 mph N/A   Overcast
11:55 PM 63.0 °F - 37.0 °F 38% 29.65 in 10.0 mi SSW 15.0 mph 27.6 mph N/A   Overcast